FW4207 Weather Reports


time (UTC)temp
C
wind
direction
speed
KPH
gust
KPH
rain 1hr
cm
rain 24hr
cm
rain mn
cm
humidity
%
barometer
mb
20260504023324 9 0 0.0 0.0 0.00 0.00 0.00 54 1015.4
20260504022318 9 0 0.0 0.0 0.00 0.00 0.00 54 1015.5
20260504021252 9 0 1.6 6.4 0.00 0.00 0.00 55 1015.6
20260504020259 9 0 0.0 3.2 0.00 0.00 0.00 53 1015.6
20260504015301 9 0 0.0 4.8 0.00 0.00 0.00 54 1015.5
20260504013148 9 0 0.0 3.2 0.00 0.00 0.00 54 1015.5
20260504012122 9 0 0.0 1.6 0.00 0.00 0.00 54 1015.7
20260504011117 9 0 0.0 1.6 0.00 0.00 0.00 54 1015.6
20260504010112 9 0 0.0 0.0 0.00 0.00 0.00 54 1015.5
20260504005118 9 0 0.0 4.8 0.00 0.00 0.00 54 1015.5
20260504004044 9 0 0.0 0.0 0.00 0.00 0.00 53 1015.5
20260504003056 9 0 0.0 0.0 0.00 0.00 0.00 53 1015.5
20260504002047 9 0 0.0 0.0 0.00 0.00 0.00 53 1015.5
20260504001022 9 0 0.0 1.6 0.00 0.00 0.00 53 1015.6
20260503235952 9 0 0.0 1.6 0.00 0.00 0.00 53 1015.9
20260503234934 9 0 0.0 1.6 0.00 0.00 0.00 54 1016.0
20260503232739 10 0 3.2 20.9 0.00 0.00 0.00 53 1016.3
20260503231745 10 0 9.7 25.7 0.00 0.00 0.00 51 1016.8
20260503230750 10 0 11.3 35.4 0.00 0.00 0.00 49 1016.9
20260503225750 11 0 12.9 35.4 0.00 0.00 0.00 46 1016.8
20260503224747 11 0 11.3 30.6 0.00 0.00 0.00 43 1016.8
20260503223720 12 0 14.5 40.2 0.00 0.00 0.00 38 1016.7
20260503222709 13 0 12.9 40.2 0.00 0.00 0.00 32 1016.7
20260503221724 14 0 11.3 37.0 0.00 0.00 0.00 27 1016.3
20260503220726 15 0 8.0 29.0 0.00 0.00 0.00 26 1016.3
20260503214547 15 0 9.7 27.4 0.00 0.00 0.00 25 1016.3
20260503213533 15 0 9.7 27.4 0.00 0.00 0.00 25 1016.3
20260503212505 15 0 9.7 25.7 0.00 0.00 0.00 24 1016.4
20260503210312 16 0 6.4 27.4 0.00 0.00 0.00 23 1016.5
20260503205304 16 0 9.7 27.4 0.00 0.00 0.00 22 1016.6
20260503204315 16 0 9.7 25.7 0.00 0.00 0.00 23 1016.8
20260503203318 16 0 4.8 17.7 0.00 0.00 0.00 25 1016.9
20260503202307 17 0 4.8 20.9 0.00 0.00 0.00 24 1017.0
20260503200141 16 0 6.4 29.0 0.00 0.00 0.00 22 1017.1
20260503195122 16 0 9.7 29.0 0.00 0.00 0.00 25 1017.2
20260503192921 17 0 8.0 32.2 0.00 0.00 0.00 24 1017.4
20260503190723 17 0 6.4 22.5 0.00 0.00 0.00 23 1018.0
20260503185711 17 0 6.4 19.3 0.00 0.00 0.00 23 1018.2
20260503183556 16 0 6.4 27.4 0.00 0.00 0.00 24 1018.5
20260503182621 16 0 8.0 27.4 0.00 0.00 0.00 23 1018.5
20260503172020 15 0 9.7 25.7 0.00 0.00 0.00 24 1019.8
20260503171028 15 0 8.0 25.7 0.00 0.00 0.00 25 1019.9
20260503150755 13 0 6.4 24.1 0.00 0.00 0.00 32 1020.6
20260503110144 1 0 0.0 4.8 0.00 0.00 0.00 55 1020.6
20260503080741 0 0 0.0 0.0 0.00 0.00 0.00 57 1020.2
20260503072814 1 0 0.0 0.0 0.00 0.00 0.00 57 1020.1
20260503071751 1 0 0.0 0.0 0.00 0.00 0.00 57 1020.3
20260503054518 2 0 0.0 4.8 0.00 0.00 0.00 56 1020.5
20260503052339 2 0 0.0 0.0 0.00 0.00 0.00 56 1020.5
20260503051314 2 0 0.0 0.0 0.00 0.00 0.00 56 1020.4
20260503050325 2 0 0.0 0.0 0.00 0.00 0.00 56 1020.5
20260503045322 2 0 0.0 0.0 0.00 0.00 0.00 56 1020.6
20260503044257 2 0 0.0 0.0 0.00 0.00 0.00 56 1020.5
20260503043241 2 0 0.0 0.0 0.00 0.00 0.00 56 1020.4
20260503042229 2 0 0.0 0.0 0.00 0.00 0.00 55 1020.4
20260503041155 2 0 0.0 0.0 0.00 0.00 0.00 55 1020.5
20260503040207 3 0 0.0 0.0 0.00 0.00 0.00 54 1020.6
20260503035222 3 0 0.0 0.0 0.00 0.00 0.00 54 1020.7
20260503034236 3 0 0.0 0.0 0.00 0.00 0.00 53 1020.7
20260503033238 3 0 0.0 0.0 0.00 0.00 0.00 53 1020.7
20260503031103 4 0 0.0 0.0 0.00 0.00 0.00 55 1020.8
20260503030113 4 0 0.0 0.0 0.00 0.00 0.00 53 1020.7
20260503024012 4 0 0.0 0.0 0.00 0.00 0.00 52 1020.8